sat.trackr.live / text

‹ back to catalog

STARLINK-36172

NORAD 67020 · 2025-293T

PAYLOAD ACTIVE UNKNOWN

§ Identity

Operator
Country
US
Launch date
2025-12-10
Launch site
AFWTR
Launch vehicle
Mass (kg)
RCS (m²)

Purposes: comms

External: N2YO · Heavens-Above · Gunter

§ Orbital elements

Epoch: 2026-09-20T20:49:45.395328Z

Period
96.11 min
Inclination
70.0006°
Eccentricity
0.0004014
Mean motion
14.98334589 rev/d
Perigee alt
569.3 km
Apogee alt
574.8 km
Semi-major
6,950.2 km
B*
1.0828e-4
RAAN
322.3411°
Arg perigee
269.5672°
Mean anomaly
90.5027°
Rev number
4,411

§ Raw data

STARLINK-361721 67020U 25293T   26263.86788652  .00001199  00000+0  10828-3 0  99962 67020  70.0006 322.3411 0004014 269.5672  90.5027 14.98334589 44119

JSON: /api/v1/satellites/67020 · /tle

For live sub-satellite position, see the globe view (requires WebGL).

§ Visibility from observer

Set your observer location to see the next 7 days of passes ≥ 10°. The values pass through the URL so the page stays shareable.

No JS? Fill the form by hand. The geolocation button needs JavaScript.